KC5TIL Weather Reports


Display with metric or nautical units.
time (UTC)temp
F
wind
direction
speed
MPH
gust
MPH
rain 1hr
in
rain 24hr
in
rain mn
in
humidity
%
barometer
mb
20260508050016 62 123 0.0 0.0 0.00 0.00 0.00 76 1017.4
20260508045512 62 121 0.0 0.0 0.00 0.00 0.00 76 1017.3
20260508045010 62 120 0.0 0.0 0.00 0.00 0.00 76 1017.3
20260508044507 62 132 0.0 0.0 0.00 0.00 0.00 75 1017.3
20260508044002 62 127 0.0 0.0 0.00 0.00 0.00 75 1017.3
20260508043459 62 125 0.0 0.0 0.00 0.00 0.00 76 1017.1
20260508042955 63 120 0.0 0.0 0.00 0.00 0.00 74 1017.2
20260508042453 63 120 0.0 0.0 0.00 0.00 0.00 75 1016.9
20260508041950 62 124 0.0 0.0 0.00 0.00 0.00 74 1017.2
20260508041447 63 125 0.0 0.0 0.00 0.00 0.00 73 1017.3
20260508040943 63 126 0.0 0.0 0.00 0.00 0.00 73 1017.2
20260508040441 63 133 0.0 1.0 0.00 0.00 0.00 73 1017.3
20260508035938 63 125 0.0 0.0 0.00 0.00 0.00 73 1017.0
20260508035435 63 125 0.0 0.0 0.00 0.00 0.00 72 1017.0
20260508034932 63 128 0.0 0.0 0.00 0.00 0.00 73 1017.1
20260508034429 63 141 0.0 0.0 0.00 0.00 0.00 74 1016.9
20260508033925 63 125 0.0 0.0 0.00 0.00 0.00 73 1016.9
20260508033424 63 123 0.0 0.0 0.00 0.00 0.00 74 1017.0
20260508032921 63 128 0.0 0.0 0.00 0.00 0.00 72 1016.9
20260508032418 64 134 0.0 0.0 0.00 0.00 0.00 73 1016.7
20260508031915 63 133 0.0 0.0 0.00 0.00 0.00 72 1016.7
20260508031413 63 157 1.0 1.0 0.00 0.00 0.00 73 1016.4
20260508030908 63 135 0.0 0.0 0.00 0.00 0.00 73 1016.4
20260508030405 63 124 0.0 0.0 0.00 0.00 0.00 73 1016.5
20260508025903 63 124 0.0 0.0 0.00 0.00 0.00 72 1016.5
20260508025359 63 109 0.0 0.0 0.00 0.00 0.00 73 1016.4
20260508024856 63 117 0.0 0.0 0.00 0.00 0.00 71 1016.5
20260508024353 64 119 0.0 0.0 0.00 0.00 0.00 71 1016.4
20260508023849 64 124 0.0 0.0 0.00 0.00 0.00 71 1016.3
20260508023346 64 118 0.0 0.0 0.00 0.00 0.00 71 1016.3
20260508022843 64 114 0.0 0.0 0.00 0.00 0.00 70 1016.2
20260508022338 64 122 0.0 0.0 0.00 0.00 0.00 70 1016.3
20260508021836 64 107 0.0 1.0 0.00 0.00 0.00 70 1016.4
20260508021332 64 131 0.0 1.0 0.00 0.00 0.00 69 1016.5
20260508020828 65 140 0.0 0.0 0.00 0.00 0.00 69 1016.2
20260508020326 65 123 0.0 0.0 0.00 0.00 0.00 68 1016.2
20260508015823 65 116 0.0 0.0 0.00 0.00 0.00 68 1016.1
20260508015320 65 119 0.0 0.0 0.00 0.00 0.00 68 1016.2
20260508014817 65 123 0.0 0.0 0.00 0.00 0.00 68 1016.4
20260508014314 65 125 0.0 0.0 0.00 0.00 0.00 67 1016.2
20260508013809 65 130 0.0 1.0 0.00 0.00 0.00 67 1016.2
20260508013306 65 129 0.0 1.0 0.00 0.00 0.00 68 1016.2
20260508012803 66 121 0.0 0.0 0.00 0.00 0.00 69 1016.3
20260508012301 66 128 0.0 1.0 0.00 0.00 0.00 68 1016.2
20260508011758 66 126 0.0 1.0 0.00 0.00 0.00 68 1016.2
20260508011256 66 113 0.0 1.0 0.00 0.00 0.00 68 1016.0
20260508010752 66 123 0.0 0.0 0.00 0.00 0.00 68 1016.1
20260508010250 66 123 0.0 0.0 0.00 0.00 0.00 67 1016.0
20260508005747 66 104 0.0 1.0 0.00 0.00 0.00 67 1016.1
20260508005244 67 121 0.0 2.0 0.00 0.00 0.00 66 1016.1
20260508004739 67 121 0.0 1.0 0.00 0.00 0.00 66 1016.3
20260508004236 67 121 0.0 0.0 0.00 0.00 0.00 65 1016.1
20260508003733 67 121 0.0 1.0 0.00 0.00 0.00 65 1016.0
20260508003230 67 81 1.0 1.0 0.00 0.00 0.00 65 1016.1
20260508002727 68 126 0.0 1.0 0.00 0.00 0.00 64 1015.8
20260508002224 68 99 1.0 1.0 0.00 0.00 0.00 64 1016.0
20260508001720 68 130 0.0 0.0 0.00 0.00 0.00 64 1016.3
20260508001215 68 130 0.0 2.0 0.00 0.00 0.00 63 1016.4
20260508000712 68 137 1.0 2.0 0.00 0.00 0.00 63 1016.3
20260508000212 68 123 0.0 1.0 0.00 0.00 0.00 64 1016.2
20260507235705 68 122 1.0 1.0 0.00 0.00 0.00 63 1016.3
20260507235203 69 125 0.0 0.0 0.00 0.00 0.00 64 1016.2
20260507234700 69 119 0.0 1.0 0.00 0.00 0.00 62 1016.3
20260507234156 69 142 0.0 1.0 0.00 0.00 0.00 61 1016.2
20260507233653 69 119 0.0 2.0 0.00 0.00 0.00 60 1016.3
20260507233151 69 118 0.0 1.0 0.00 0.00 0.00 59 1016.4
20260507232648 69 142 1.0 2.0 0.00 0.00 0.00 60 1016.1
20260507232145 69 158 0.0 1.0 0.00 0.00 0.00 60 1016.4
20260507231641 69 123 2.0 2.0 0.00 0.00 0.00 60 1016.3
20260507231139 69 116 0.0 2.0 0.00 0.00 0.00 61 1016.3
20260507230635 69 120 0.0 0.0 0.00 0.00 0.00 61 1016.3
20260507230132 69 107 0.0 1.0 0.00 0.00 0.00 61 1016.4
20260507225626 69 129 1.0 3.0 0.00 0.00 0.00 60 1016.5
20260507225123 69 132 2.0 2.0 0.00 0.00 0.00 62 1016.3
20260507224618 70 131 0.0 2.0 0.00 0.00 0.00 62 1016.5
20260507224115 70 98 0.0 1.0 0.00 0.00 0.00 60 1016.5
20260507223612 71 130 1.0 1.0 0.00 0.00 0.00 59 1016.4
20260507223109 71 140 1.0 2.0 0.00 0.00 0.00 57 1016.5
20260507222606 71 113 0.0 1.0 0.00 0.00 0.00 56 1016.6
20260507222102 71 129 0.0 1.0 0.00 0.00 0.00 56 1016.6
20260507221558 71 116 0.0 1.0 0.00 0.00 0.00 57 1016.6
20260507221055 71 109 0.0 1.0 0.00 0.00 0.00 52 1016.5
20260507220552 72 115 0.0 0.0 0.00 0.00 0.00 52 1016.6
20260507220050 72 118 0.0 0.0 0.00 0.00 0.00 55 1016.5
20260507215546 72 122 0.0 0.0 0.00 0.00 0.00 51 1016.6
20260507215044 72 115 0.0 0.0 0.00 0.00 0.00 50 1016.6
20260507214541 72 93 1.0 1.0 0.00 0.00 0.00 49 1016.7
20260507214037 72 78 1.0 1.0 0.00 0.00 0.00 48 1016.7
20260507213533 72 100 1.0 1.0 0.00 0.00 0.00 48 1016.8
20260507213031 72 79 1.0 1.0 0.00 0.00 0.00 49 1016.6
20260507212526 72 114 0.0 0.0 0.00 0.00 0.00 50 1016.9
20260507212023 72 121 0.0 1.0 0.00 0.00 0.00 53 1017.2
20260507211520 72 116 0.0 1.0 0.00 0.00 0.00 49 1017.1
20260507211016 72 123 0.0 1.0 0.00 0.00 0.00 50 1017.4
20260507210514 72 126 0.0 0.0 0.00 0.00 0.00 49 1017.4
20260507210010 72 115 0.0 1.0 0.00 0.00 0.00 51 1017.5
20260507205507 72 117 0.0 1.0 0.00 0.00 0.00 50 1017.8
20260507205003 72 110 0.0 2.0 0.00 0.00 0.00 49 1017.6
20260507204459 72 79 1.0 1.0 0.00 0.00 0.00 49 1017.5
20260507203957 71 70 1.0 2.0 0.00 0.00 0.00 50 1017.5
20260507203455 72 307 2.0 2.0 0.00 0.00 0.00 50 1017.3
20260507202951 71 118 0.0 1.0 0.00 0.00 0.00 52 1017.4
20260507202447 71 32 2.0 2.0 0.00 0.00 0.00 52 1017.2
20260507201943 71 88 2.0 7.0 0.00 0.00 0.00 52 1017.2
20260507201438 71 112 1.0 2.0 0.00 0.00 0.00 52 1017.2
20260507200936 71 359 2.0 3.0 0.00 0.00 0.00 52 1017.3
20260507200431 71 71 2.0 5.0 0.00 0.00 0.00 52 1017.4
20260507195927 72 83 2.0 3.0 0.00 0.00 0.00 51 1017.6
20260507195425 72 149 1.0 1.0 0.00 0.00 0.00 48 1017.8
20260507194922 72 117 1.0 1.0 0.00 0.00 0.00 49 1017.9
20260507194418 71 82 1.0 3.0 0.00 0.00 0.00 49 1018.0
20260507193915 71 98 1.0 2.0 0.00 0.00 0.00 49 1018.1
20260507193412 70 63 1.0 3.0 0.00 0.00 0.00 51 1018.0
20260507192909 71 81 3.0 5.0 0.00 0.00 0.00 49 1018.3
20260507192405 71 66 3.0 5.0 0.00 0.00 0.00 50 1018.5
20260507191902 71 121 2.0 3.0 0.00 0.00 0.00 49 1018.6
20260507191358 71 92 1.0 3.0 0.00 0.00 0.00 51 1018.6
20260507190854 72 171 2.0 2.0 0.00 0.00 0.00 49 1018.8
20260507190353 71 64 1.0 3.0 0.00 0.00 0.00 49 1019.0
20260507185851 71 64 2.0 6.0 0.00 0.00 0.00 50 1018.8
20260507185348 71 53 3.0 8.0 0.00 0.00 0.00 50 1018.8
20260507184845 71 165 3.0 8.0 0.00 0.00 0.00 48 1018.7
20260507184343 71 71 1.0 7.0 0.00 0.00 0.00 49 1018.8
20260507183839 72 9 4.0 8.0 0.00 0.00 0.00 49 1018.9
20260507183337 71 100 3.0 10.0 0.00 0.00 0.00 48 1018.7
20260507182834 71 169 2.0 7.0 0.00 0.00 0.00 51 1018.7
20260507182330 71 73 3.0 7.0 0.00 0.00 0.00 51 1018.9
20260507181826 71 17 5.0 9.0 0.00 0.00 0.00 48 1018.8
20260507181322 70 47 4.0 7.0 0.00 0.00 0.00 49 1019.0
20260507180819 70 59 3.0 6.0 0.00 0.00 0.00 51 1018.9
20260507180316 71 57 3.0 8.0 0.00 0.00 0.00 51 1019.0
20260507175811 70 4 4.0 8.0 0.00 0.00 0.00 51 1019.0
20260507175309 69 66 1.0 5.0 0.00 0.00 0.00 55 1019.2
20260507174806 69 338 6.0 7.0 0.00 0.00 0.00 52 1019.3
20260507174304 70 71 3.0 7.0 0.00 0.00 0.00 53 1019.3
20260507173801 69 237 1.0 3.0 0.00 0.00 0.00 54 1019.5
20260507173258 69 41 6.0 9.0 0.00 0.00 0.00 55 1019.6
20260507172754 68 72 2.0 7.0 0.00 0.00 0.00 57 1019.5
20260507172251 68 72 0.0 5.0 0.00 0.00 0.00 60 1019.6
20260507171747 68 20 5.0 9.0 0.00 0.00 0.00 58 1019.8
20260507171244 68 69 3.0 7.0 0.00 0.00 0.00 58 1019.7
20260507170741 68 127 1.0 6.0 0.00 0.00 0.00 61 1020.1
20260507170238 67 49 3.0 6.0 0.00 0.00 0.00 61 1020.2
20260507165733 67 98 2.0 3.0 0.00 0.00 0.00 59 1020.5
20260507165230 67 58 3.0 7.0 0.00 0.00 0.00 62 1020.7
20260507164726 68 69 2.0 3.0 0.00 0.00 0.00 60 1020.7
20260507164223 67 56 1.0 6.0 0.00 0.00 0.00 62 1020.9
20260507163720 67 77 2.0 5.0 0.00 0.00 0.00 60 1020.9
20260507163218 68 65 1.0 3.0 0.00 0.00 0.00 62 1020.8
20260507162713 67 106 1.0 6.0 0.00 0.00 0.00 62 1020.9
20260507162210 66 62 5.0 6.0 0.00 0.00 0.00 63 1020.9
20260507161706 66 339 4.0 7.0 0.00 0.00 0.00 64 1020.9
20260507161203 66 126 2.0 5.0 0.00 0.00 0.00 64 1020.9
20260507160659 66 43 4.0 5.0 0.00 0.00 0.00 63 1021.2
20260507160156 65 25 3.0 5.0 0.00 0.00 0.00 65 1020.9
20260507155651 65 44 3.0 7.0 0.00 0.00 0.00 65 1020.9
20260507155142 65 72 2.0 5.0 0.00 0.00 0.00 66 1020.7
20260507154638 64 99 1.0 3.0 0.00 0.00 0.00 68 1020.8
20260507154137 64 89 2.0 3.0 0.00 0.00 0.00 66 1020.8
20260507153633 64 100 2.0 3.0 0.00 0.00 0.00 67 1021.0
20260507153129 64 73 1.0 2.0 0.00 0.00 0.00 67 1021.0
20260507152625 64 70 1.0 2.0 0.00 0.00 0.00 69 1021.1
20260507152121 64 70 1.0 5.0 0.00 0.00 0.00 71 1021.2
20260507151617 63 21 1.0 3.0 0.00 0.00 0.00 71 1021.2
20260507151115 63 59 4.0 5.0 0.00 0.00 0.00 70 1021.3
20260507150612 63 107 0.0 2.0 0.00 0.00 0.00 70 1021.4
20260507150108 64 115 1.0 5.0 0.00 0.00 0.00 68 1021.2
20260507145604 63 18 3.0 5.0 0.00 0.00 0.00 68 1021.5
20260507145102 65 154 1.0 2.0 0.00 0.00 0.00 68 1021.3
20260507144557 64 87 2.0 6.0 0.00 0.00 0.00 68 1021.5
20260507144056 63 104 0.0 3.0 0.00 0.00 0.00 70 1021.6
20260507143552 63 38 3.0 3.0 0.00 0.00 0.00 71 1021.6
20260507143050 62 51 1.0 2.0 0.00 0.00 0.00 73 1021.5
20260507142550 62 85 2.0 5.0 0.00 0.00 0.00 73 1021.5
20260507142047 61 99 1.0 3.0 0.00 0.00 0.00 74 1021.6
20260507141543 61 53 3.0 5.0 0.00 0.00 0.00 75 1021.8
20260507141040 61 22 1.0 1.0 0.00 0.00 0.00 76 1021.6
20260507140537 61 123 3.0 5.0 0.00 0.00 0.00 76 1021.8
20260507140034 61 50 2.0 3.0 0.00 0.00 0.00 77 1021.9
20260507135531 60 94 2.0 3.0 0.00 0.00 0.00 77 1021.7
20260507135029 61 45 1.0 5.0 0.00 0.00 0.00 77 1021.8
20260507134525 59 85 1.0 2.0 0.00 0.00 0.00 80 1021.9
20260507134020 59 20 3.0 5.0 0.00 0.00 0.00 81 1021.9
20260507133517 59 9 3.0 5.0 0.00 0.00 0.00 80 1022.0
20260507133015 58 358 2.0 3.0 0.00 0.00 0.00 81 1022.0
20260507132511 58 59 2.0 3.0 0.00 0.00 0.00 82 1022.2
20260507132008 57 268 2.0 3.0 0.00 0.00 0.00 82 1022.1
20260507131505 57 95 0.0 2.0 0.00 0.00 0.00 82 1022.2
20260507131002 58 38 1.0 1.0 0.00 0.00 0.00 82 1022.2
20260507130459 58 125 0.0 1.0 0.00 0.00 0.00 82 1022.1
20260507125957 57 121 0.0 0.0 0.00 0.00 0.00 83 1022.3
20260507125455 57 120 0.0 1.0 0.00 0.00 0.00 83 1022.1
20260507124952 57 118 0.0 0.0 0.00 0.00 0.00 84 1022.4
20260507124448 56 116 0.0 0.0 0.00 0.00 0.00 84 1022.1
20260507123947 56 130 0.0 0.0 0.00 0.00 0.00 85 1022.1
20260507123444 56 127 0.0 1.0 0.00 0.00 0.00 84 1021.9
20260507122940 56 116 0.0 0.0 0.00 0.00 0.00 85 1021.9
20260507122436 56 118 0.0 0.0 0.00 0.00 0.00 86 1021.8
20260507121932 55 111 0.0 1.0 0.00 0.00 0.00 88 1021.9
20260507121427 54 78 1.0 1.0 0.00 0.00 0.00 89 1021.7
20260507120924 54 345 1.0 2.0 0.00 0.00 0.00 90 1021.7
20260507120420 54 152 0.0 1.0 0.00 0.00 0.00 90 1021.9
20260507115917 54 130 0.0 0.0 0.00 0.00 0.00 90 1021.8
20260507115413 54 150 1.0 2.0 0.00 0.00 0.00 90 1022.0
20260507114909 53 240 1.0 2.0 0.00 0.00 0.00 90 1022.0
20260507114406 53 152 0.0 2.0 0.00 0.00 0.00 90 1022.1
20260507113903 53 142 0.0 2.0 0.00 0.00 0.00 90 1022.0
20260507113400 53 169 1.0 1.0 0.00 0.00 0.00 90 1021.7
20260507112857 53 226 1.0 2.0 0.00 0.00 0.00 90 1021.7
20260507112354 53 270 2.0 2.0 0.00 0.00 0.00 90 1021.6
20260507111852 54 268 1.0 3.0 0.00 0.00 0.00 90 1021.5
20260507111349 54 22 1.0 2.0 0.00 0.00 0.00 90 1021.3
20260507110845 54 272 3.0 3.0 0.00 0.00 0.00 90 1021.6
20260507110341 54 319 1.0 2.0 0.00 0.00 0.00 90 1021.4
20260507105838 54 332 2.0 2.0 0.00 0.00 0.00 90 1021.2
20260507105335 54 90 1.0 1.0 0.00 0.00 0.00 91 1021.3
20260507104832 54 286 2.0 2.0 0.00 0.00 0.00 91 1021.3
20260507104328 54 45 0.0 1.0 0.00 0.00 0.00 90 1021.2
20260507103824 54 319 2.0 5.0 0.00 0.00 0.00 91 1021.0
20260507103321 54 327 3.0 3.0 0.00 0.00 0.00 91 1020.9
20260507102817 54 73 1.0 1.0 0.00 0.00 0.00 90 1020.7
20260507102314 54 68 0.0 2.0 0.00 0.00 0.00 90 1020.5
20260507101811 54 275 2.0 2.0 0.00 0.00 0.00 90 1020.6
20260507101310 54 143 0.0 1.0 0.00 0.00 0.00 90 1020.4
20260507100808 55 119 0.0 1.0 0.00 0.00 0.00 90 1020.4
20260507100306 55 108 0.0 1.0 0.00 0.00 0.00 89 1020.5
20260507095804 55 133 0.0 1.0 0.00 0.00 0.00 89 1020.2
20260507095300 55 109 0.0 0.0 0.00 0.00 0.00 88 1020.2
20260507094757 55 105 0.0 0.0 0.00 0.00 0.00 88 1020.3
20260507094254 55 101 0.0 1.0 0.00 0.00 0.00 88 1020.2
20260507093751 55 359 2.0 2.0 0.00 0.00 0.00 88 1020.0
20260507093249 55 86 0.0 2.0 0.00 0.00 0.00 87 1019.8
20260507092747 55 59 0.0 2.0 0.00 0.00 0.00 87 1019.8
20260507092242 55 65 1.0 3.0 0.00 0.00 0.00 87 1019.9
20260507091739 56 76 0.0 2.0 0.00 0.00 0.00 86 1019.8
20260507091236 56 60 1.0 2.0 0.00 0.00 0.00 86 1019.8
20260507090731 56 116 0.0 2.0 0.00 0.00 0.00 86 1019.8
20260507090228 56 14 3.0 3.0 0.00 0.00 0.00 86 1019.6
20260507085725 56 41 3.0 3.0 0.00 0.00 0.00 86 1019.6
20260507085217 56 115 0.0 1.0 0.00 0.00 0.00 86 1019.5
20260507084714 56 16 2.0 3.0 0.00 0.00 0.00 85 1019.3
20260507084210 56 57 1.0 3.0 0.00 0.00 0.00 85 1019.2
20260507083708 56 34 3.0 7.0 0.00 0.00 0.00 85 1019.2
20260507083204 56 87 2.0 3.0 0.00 0.00 0.00 85 1019.2
20260507082659 57 44 2.0 5.0 0.00 0.00 0.00 85 1019.4
20260507082155 57 54 2.0 3.0 0.00 0.00 0.00 85 1019.5
20260507081652 57 25 2.0 2.0 0.00 0.00 0.00 85 1019.7
20260507081143 57 72 1.0 3.0 0.00 0.00 0.00 84 1019.6
20260507080640 57 32 2.0 3.0 0.00 0.00 0.00 84 1019.6
20260507080136 57 11 2.0 3.0 0.00 0.00 0.00 84 1019.7
20260507075631 57 63 1.0 3.0 0.00 0.00 0.00 84 1019.5
20260507075127 57 92 0.0 1.0 0.00 0.00 0.00 84 1019.4
20260507074624 57 83 0.0 5.0 0.00 0.00 0.00 84 1019.5
20260507074123 57 72 1.0 2.0 0.00 0.00 0.00 84 1019.3
20260507073618 57 43 1.0 2.0 0.00 0.00 0.00 84 1019.4
20260507073114 57 46 1.0 5.0 0.00 0.00 0.00 83 1019.3
20260507072613 57 54 1.0 5.0 0.00 0.00 0.00 83 1019.1
20260507072110 57 98 1.0 5.0 0.00 0.00 0.00 84 1018.9
20260507071607 57 135 1.0 3.0 0.00 0.00 0.00 84 1018.9
20260507071103 57 312 2.0 3.0 0.00 0.00 0.00 83 1018.6
20260507070600 58 49 2.0 5.0 0.00 0.00 0.00 84 1018.6
20260507070057 58 352 1.0 2.0 0.00 0.00 0.00 84 1018.6
20260507065553 58 35 3.0 3.0 0.00 0.00 0.00 83 1018.6
20260507065051 58 352 1.0 3.0 0.00 0.00 0.00 83 1018.6
20260507064549 58 59 4.0 7.0 0.00 0.00 0.00 83 1018.6
20260507064047 59 33 3.0 3.0 0.00 0.00 0.00 83 1018.5
20260507063544 59 41 3.0 7.0 0.00 0.00 0.00 83 1018.6
20260507063041 58 93 0.0 6.0 0.00 0.00 0.00 83 1018.8
20260507062537 58 55 1.0 1.0 0.00 0.00 0.00 82 1018.9
20260507062035 59 53 1.0 2.0 0.00 0.00 0.00 82 1018.8
20260507061533 59 88 1.0 5.0 0.00 0.00 0.00 81 1018.6
20260507061031 59 101 0.0 3.0 0.00 0.00 0.00 81 1018.5
20260507060528 59 66 1.0 2.0 0.00 0.00 0.00 80 1018.5
20260507060025 59 92 0.0 7.0 0.00 0.00 0.00 79 1018.5
20260507055520 59 80 2.0 3.0 0.00 0.00 0.00 79 1018.4
20260507055017 60 63 2.0 6.0 0.00 0.00 0.00 79 1018.4
20260507054513 60 63 2.0 5.0 0.00 0.00 0.00 78 1018.7
20260507054010 60 68 2.0 3.0 0.00 0.00 0.00 78 1018.6
20260507053508 60 31 5.0 7.0 0.00 0.00 0.00 78 1018.6
20260507053006 60 52 3.0 6.0 0.00 0.00 0.00 77 1018.5
20260507052504 60 81 3.0 5.0 0.00 0.00 0.00 78 1018.6
20260507052000 60 46 3.0 5.0 0.00 0.00 0.00 78 1018.7
20260507051458 60 52 3.0 6.0 0.00 0.00 0.00 77 1018.6
20260507050954 60 53 1.0 3.0 0.00 0.00 0.00 78 1018.6
20260507050451 60 100 1.0 8.0 0.00 0.00 0.00 78 1018.5